Regional Weather Roundup
Issued by NWS Kansas City/Pleasant Hill, MO

Home | Current Version | Previous Version | Text Only | Print | Product List | Glossary On
Versions: 1 2 3 4 5 6 7 8 9 10 11 12 13 14 15 16 17 18 19 20 21 22 23 24 25 26 27
000
ASUS43 KEAX 240410
RWREAX

WEATHER ROUNDUP FOR EASTERN KANSAS AND NORTHWEST MISSOURI
NATIONAL WEATHER SERVICE KANSAS CITY/PLEASANT HILL MO
1000 PM CST THU NOV 23 2017

KSZ040-057-103>105-MOZ028-029-037-043-240500-
...KANSAS CITY METROPOLITAN AREA...

CITY           SKY/WX    TMP DP  RH WIND       PRES   REMARKS
K.C. INTL      MOCLDY    48  37  65 S9        29.89F
K.C. DOWNTOWN  CLOUDY    52  36  54 SW7       29.89F
LEES SUMMIT    PTCLDY    52  36  54 S9        29.90F
OLATHE - IXD   CLOUDY    48  36  63 S7        29.91F
OLATHE - OJC   CLOUDY    49  35  58 S7        29.90F
LAWRENCE       MOCLDY    48  38  68 E7        29.89F

$$

MOZ001>008-011>017-020>025-030>033-038>040-044>046-053-054-240500-
...NORTHERN AND CENTRAL MISSOURI...

CITY           SKY/WX    TMP DP  RH WIND       PRES   REMARKS
ST. JOSEPH     CLOUDY    48  36  63 S5        29.87F
MOSBY          PTCLDY    39  32  75 CALM      29.89F
WARRENSBURG    PTCLDY    41  32  70 S6        29.92F
WHITEMAN AFB   CLOUDY    46  33  61 S6        29.89F
CLINTON        CLOUDY    45  32  61 MISG      29.94F
SEDALIA        CLOUDY    48  35  60 S9        29.95F
WARSAW         NOT AVBL
CHILLICOTHE      N/A     40  34  79 S3        29.90F
KIRKSVILLE     CLOUDY    41  34  76 S7        29.90F

$$

MOZ041-047>049-056>058-063>065-088>090-097-240500-
...EASTERN AND SOUTHERN MISSOURI...

CITY           SKY/WX    TMP DP  RH WIND       PRES   REMARKS
ST. LOUIS INTL CLEAR     40  31  70 CALM      29.96F
SPIRIT OF STL  CLEAR     33  29  85 CALM      29.95F
COLUMBIA       CLEAR     45  32  60 W6        29.95R
JEFFERSON CITY CLEAR     38  33  82 CALM      29.96R
ROLLA          CLEAR     39  30  70 S6        29.95F WCI  35
OSAGE BEACH    CLEAR     40  31  70 S3        29.97R
SPRINGFIELD    CLEAR     39  31  72 SW3       29.97F
BRANSON        CLEAR     52  28  40 CALM      30.00S
JOPLIN         CLOUDY    47  32  56 S7        29.98F
WEST PLAINS    CLEAR     42  27  55 SW3       29.99F

$$

IAZ060-094-KSZ022-034>040-054-083-096-NEZ052-066-093-240500-
...KANSAS...SOUTHEAST NEBRASKA AND IOWA...

CITY           SKY/WX    TMP DP  RH WIND       PRES   REMARKS
TOPEKA         CLOUDY    56  37  49 S9        29.87F
MANHATTAN      PTCLDY    46  37  71 CALM      29.86F
EMPORIA        MOCLDY    51  35  54 S10       29.90F
CHANUTE        CLOUDY    50  32  50 S9        29.95F
WICHITA        CLOUDY    50  37  61 S9        29.91F
OMAHA          CLOUDY    49  38  65 SE9       29.78F
LINCOLN        MOCLDY    56  40  55 S7        29.80F
FALLS CITY     CLOUDY    55  38  52 S12       29.82F
LAMONI         PTCLDY    48  35  60 S9        29.85F
DES MOINES     CLOUDY    46  34  62 S10       29.81F

$$





USA.gov is the U.S. government's official web portal to all federal, state and local government web resources and services.